Time,TemperatureF,DewpointF,PressureIn,WindDirection,WindDirectionDegrees,WindSpeedMPH,WindSpeedGustMPH,Humidity,HourlyPrecipIn,Conditions,Clouds,dailyrainin,SoftwareType,DateUTC
2013-04-12 00:20:00,63.2,56.0,29.57,WNW,299,8.0,22.0,76,0.00,,,0.00,weatherlink.com 1.10,2013-04-12 04:20:00,
2013-04-12 00:38:00,63.1,56.0,29.56,WNW,285,16.0,23.0,77,0.00,,,0.00,weatherlink.com 1.10,2013-04-12 04:38:00,
2013-04-12 00:56:00,63.4,56.0,29.55,West,280,8.0,26.0,76,0.00,,,0.00,weatherlink.com 1.10,2013-04-12 04:56:00,
2013-04-12 01:14:00,63.6,56.0,29.55,NW,313,6.0,17.0,75,0.00,,,0.00,weatherlink.com 1.10,2013-04-12 05:14:00,
2013-04-12 01:34:00,63.6,56.0,29.56,WSW,250,10.0,15.0,75,0.00,,,0.00,weatherlink.com 1.10,2013-04-12 05:34:00,
2013-04-12 01:52:00,62.9,55.0,29.55,NW,326,6.0,20.0,76,0.00,,,0.00,weatherlink.com 1.10,2013-04-12 05:52:00,
2013-04-12 02:10:00,62.7,55.0,29.55,NNW,329,13.0,17.0,76,0.00,,,0.00,weatherlink.com 1.10,2013-04-12 06:10:00,
2013-04-12 02:30:00,62.5,55.0,29.54,WNW,295,7.0,21.0,77,0.00,,,0.00,weatherlink.com 1.10,2013-04-12 06:30:00,
2013-04-12 02:48:00,62.4,55.0,29.53,West,259,10.0,14.0,77,0.00,,,0.00,weatherlink.com 1.10,2013-04-12 06:48:00,
2013-04-12 03:06:00,62.4,55.0,29.54,NW,323,5.0,18.0,77,0.00,,,0.00,weatherlink.com 1.10,2013-04-12 07:06:00,
2013-04-12 03:26:00,62.0,55.0,29.53,WNW,290,8.0,18.0,78,0.00,,,0.00,weatherlink.com 1.10,2013-04-12 07:26:00,
2013-04-12 03:44:00,61.0,56.0,29.53,WNW,293,13.0,22.0,82,0.00,,,0.00,weatherlink.com 1.10,2013-04-12 07:44:00,
2013-04-12 04:02:00,60.2,56.0,29.52,West,280,12.0,18.0,86,0.01,,,0.01,weatherlink.com 1.10,2013-04-12 08:02:00,
2013-04-12 04:22:00,59.6,56.0,29.51,WNW,291,5.0,10.0,88,0.03,,,0.03,weatherlink.com 1.10,2013-04-12 08:22:00,
2013-04-12 04:40:00,59.6,56.0,29.50,WNW,298,7.0,13.0,89,0.04,,,0.04,weatherlink.com 1.10,2013-04-12 08:40:00,
2013-04-12 05:00:00,59.2,56.0,29.50,WNW,301,5.0,10.0,90,0.05,,,0.06,weatherlink.com 1.10,2013-04-12 09:00:00,
2013-04-12 05:16:00,59.0,56.0,29.51,West,281,6.0,12.0,91,0.12,,,0.14,weatherlink.com 1.10,2013-04-12 09:16:00,
2013-04-12 05:36:00,58.7,56.0,29.54,ENE,64,2.0,8.0,92,0.14,,,0.18,weatherlink.com 1.10,2013-04-12 09:36:00,
2013-04-12 05:54:00,58.6,56.0,29.53,SE,146,3.0,7.0,92,0.16,,,0.21,weatherlink.com 1.10,2013-04-12 09:54:00,
2013-04-12 06:12:00,58.4,56.0,29.53,WNW,302,0.0,7.0,93,0.20,,,0.28,weatherlink.com 1.10,2013-04-12 10:12:00,
2013-04-12 06:31:00,58.4,56.0,29.53,North,350,1.0,7.0,93,0.14,,,0.31,weatherlink.com 1.10,2013-04-12 10:31:00,
2013-04-12 06:49:00,58.3,57.0,29.52,WNW,283,2.0,5.0,94,0.13,,,0.33,weatherlink.com 1.10,2013-04-12 10:49:00,
2013-04-12 07:09:00,59.2,57.0,29.51,ENE,58,1.0,9.0,93,0.09,,,0.35,weatherlink.com 1.10,2013-04-12 11:09:00,
2013-04-12 07:27:00,59.6,58.0,29.50,SW,226,2.0,7.0,93,0.06,,,0.37,weatherlink.com 1.10,2013-04-12 11:27:00,
2013-04-12 07:45:00,59.5,57.0,29.50,West,270,1.0,8.0,92,0.05,,,0.38,weatherlink.com 1.10,2013-04-12 11:45:00,
2013-04-12 08:03:00,59.0,57.0,29.50,NNE,18,2.0,7.0,92,0.04,,,0.39,weatherlink.com 1.10,2013-04-12 12:03:00,
2013-04-12 08:23:00,59.1,57.0,29.50,NE,41,6.0,7.0,93,0.04,,,0.40,weatherlink.com 1.10,2013-04-12 12:23:00,
2013-04-12 08:41:00,59.7,57.0,29.50,NE,42,2.0,7.0,92,0.02,,,0.40,weatherlink.com 1.10,2013-04-12 12:41:00,
2013-04-12 09:00:00,60.9,58.0,29.51,North,6,7.0,15.0,89,0.02,,,0.40,weatherlink.com 1.10,2013-04-12 13:00:00,
2013-04-12 09:18:00,62.2,58.0,29.51,ENE,60,10.0,15.0,86,0.00,,,0.40,weatherlink.com 1.10,2013-04-12 13:18:00,
2013-04-12 09:36:00,63.2,59.0,29.51,NNE,28,2.0,12.0,85,0.00,,,0.40,weatherlink.com 1.10,2013-04-12 13:36:00,
2013-04-12 09:56:00,63.9,59.0,29.51,NE,37,8.0,15.0,83,0.00,,,0.40,weatherlink.com 1.10,2013-04-12 13:56:00,
2013-04-12 10:14:00,65.7,59.0,29.52,NE,43,10.0,19.0,80,0.00,,,0.40,weatherlink.com 1.10,2013-04-12 14:14:00,
2013-04-12 10:32:00,65.1,58.0,29.53,NE,53,7.0,22.0,79,0.00,,,0.40,weatherlink.com 1.10,2013-04-12 14:32:00,
2013-04-12 10:52:00,65.9,59.0,29.54,NE,43,19.0,19.0,78,0.00,,,0.40,weatherlink.com 1.10,2013-04-12 14:52:00,
2013-04-12 11:10:00,67.1,59.0,29.53,ESE,109,4.0,20.0,76,0.00,,,0.40,weatherlink.com 1.10,2013-04-12 15:10:00,
2013-04-12 11:46:00,67.5,60.0,29.55,SE,131,3.0,23.0,76,0.00,,,0.40,weatherlink.com 1.10,2013-04-12 15:46:00,
2013-04-12 12:06:00,66.9,58.0,29.55,ESE,113,10.0,16.0,73,0.00,,,0.40,weatherlink.com 1.10,2013-04-12 16:06:00,
2013-04-12 12:24:00,65.3,56.0,29.55,North,5,9.0,19.0,73,0.00,,,0.40,weatherlink.com 1.10,2013-04-12 16:24:00,
2013-04-12 12:42:00,64.3,57.0,29.57,East,86,2.0,16.0,77,0.00,,,0.40,weatherlink.com 1.10,2013-04-12 16:42:00,
2013-04-12 13:02:00,63.4,56.0,29.58,SE,145,3.0,13.0,77,0.00,,,0.40,weatherlink.com 1.10,2013-04-12 17:02:00,
2013-04-12 13:20:00,61.8,54.0,29.59,SSE,149,4.0,19.0,76,0.00,,,0.40,weatherlink.com 1.10,2013-04-12 17:20:00,
2013-04-12 13:38:00,62.4,54.0,29.59,East,83,1.0,14.0,75,0.00,,,0.40,weatherlink.com 1.10,2013-04-12 17:38:00,
2013-04-12 13:58:00,61.9,53.0,29.60,NE,56,7.0,14.0,72,0.00,,,0.40,weatherlink.com 1.10,2013-04-12 17:58:00,
2013-04-12 14:16:00,62.4,53.0,29.59,SE,138,3.0,13.0,72,0.00,,,0.40,weatherlink.com 1.10,2013-04-12 18:16:00,
2013-04-12 15:30:00,64.6,51.0,29.59,NE,41,11.0,14.0,61,0.00,,,0.40,weatherlink.com 1.10,2013-04-12 19:30:00,
2013-04-12 15:48:00,66.4,50.0,29.58,SE,131,5.0,16.0,55,0.00,,,0.40,weatherlink.com 1.10,2013-04-12 19:48:00,
2013-04-12 16:08:00,65.4,47.0,29.58,East,96,7.0,17.0,52,0.00,,,0.40,weatherlink.com 1.10,2013-04-12 20:08:00,
2013-04-12 16:26:00,65.0,48.0,29.59,ESE,119,7.0,17.0,54,0.00,,,0.40,weatherlink.com 1.10,2013-04-12 20:26:00,
2013-04-12 16:44:00,63.9,49.0,29.59,SE,132,5.0,12.0,59,0.00,,,0.40,weatherlink.com 1.10,2013-04-12 20:44:00,
2013-04-12 17:22:00,64.1,49.0,29.60,ESE,122,9.0,15.0,58,0.00,,,0.40,weatherlink.com 1.10,2013-04-12 21:22:00,
2013-04-12 17:40:00,63.7,47.0,29.61,SE,142,9.0,22.0,54,0.00,,,0.40,weatherlink.com 1.10,2013-04-12 21:40:00,
2013-04-12 17:58:00,61.1,46.0,29.63,ESE,115,14.0,16.0,57,0.00,,,0.40,weatherlink.com 1.10,2013-04-12 21:58:00,
2013-04-12 18:18:00,61.9,44.0,29.65,SE,134,5.0,18.0,53,0.00,,,0.40,weatherlink.com 1.10,2013-04-12 22:18:00,
2013-04-12 18:36:00,60.2,43.0,29.66,ESE,115,19.0,20.0,54,0.00,,,0.40,weatherlink.com 1.10,2013-04-12 22:36:00,
2013-04-12 18:54:00,59.0,44.0,29.68,SE,139,6.0,22.0,57,0.00,,,0.40,weatherlink.com 1.10,2013-04-12 22:54:00,
2013-04-12 19:14:00,54.5,42.0,29.71,SSE,148,13.0,25.0,63,0.00,,,0.40,weatherlink.com 1.10,2013-04-12 23:14:00,
2013-04-12 19:50:00,48.8,38.0,29.77,SE,124,6.0,22.0,67,0.00,,,0.40,weatherlink.com 1.10,2013-04-12 23:50:00,
2013-04-12 20:10:00,47.9,37.0,29.79,ESE,117,9.0,14.0,65,0.00,,,0.40,weatherlink.com 1.10,2013-04-13 00:10:00,
2013-04-12 20:28:00,47.3,35.0,29.80,ESE,115,5.0,21.0,62,0.00,,,0.40,weatherlink.com 1.10,2013-04-13 00:28:00,
2013-04-12 20:46:00,47.0,34.0,29.80,ESE,108,2.0,11.0,61,0.00,,,0.40,weatherlink.com 1.10,2013-04-13 00:46:00,
2013-04-12 21:04:00,46.8,34.0,29.81,ESE,110,4.0,8.0,61,0.00,,,0.40,weatherlink.com 1.10,2013-04-13 01:04:00,
2013-04-12 21:24:00,46.7,35.0,29.82,SE,137,3.0,4.0,64,0.00,,,0.40,weatherlink.com 1.10,2013-04-13 01:24:00,
2013-04-12 21:42:00,46.7,35.0,29.82,ESE,115,2.0,7.0,64,0.00,,,0.40,weatherlink.com 1.10,2013-04-13 01:42:00,
2013-04-12 22:00:00,46.5,35.0,29.83,ESE,116,3.0,6.0,64,0.00,,,0.40,weatherlink.com 1.10,2013-04-13 02:00:00,
2013-04-12 22:20:00,46.5,35.0,29.83,ESE,109,1.0,4.0,65,0.00,,,0.40,weatherlink.com 1.10,2013-04-13 02:20:00,
2013-04-12 22:38:00,46.4,35.0,29.84,ENE,67,3.0,8.0,65,0.00,,,0.40,weatherlink.com 1.10,2013-04-13 02:38:00,
2013-04-12 22:56:00,46.3,36.0,29.83,SE,134,1.0,5.0,67,0.00,,,0.40,weatherlink.com 1.10,2013-04-13 02:56:00,
2013-04-12 23:16:00,46.0,36.0,29.83,ESE,112,3.0,7.0,68,0.00,,,0.40,weatherlink.com 1.10,2013-04-13 03:16:00,
2013-04-12 23:34:00,45.7,36.0,29.83,SE,134,5.0,9.0,68,0.00,,,0.40,weatherlink.com 1.10,2013-04-13 03:34:00,
2013-04-12 23:52:00,45.4,36.0,29.83,East,89,5.0,8.0,69,0.00,,,0.40,weatherlink.com 1.10,2013-04-13 03:52:00,